Wind_Speed
6 5 6 5 5 5 5 6 7 7 8 8 8 9 9 10 10 8 7 8 8 7 6 8 8 7 7 7 7 8 10 9 8 8 7 6 9 12 13 13 13 13 14 14 13 11 10 9 14 21 26 29 34 37 35 32 31 30 30 30 30 29 28 28 28 26 25 27 27 27 28 28 29 29 30 30 28 27 27 27 26 27 27 27 27 26 26
6 6 6 6 6 7 6 6 6 5 5 5 6 6 6 8 10 9 9 9 9 9 9 10 10 8 9 12 10 7 7 8 9 9 9 8 10 11 12 12 11 11 11 11 11 9 8 6 6 13 19 20 22 28 33 31 29 29 28 26 27 28 29 29 29 27 28 29 28 28 29 29 30 31 33 33 30 28 29 29 29 28 28 28 27 27 27
7 6 5 6 7 7 8 7 5 4 3 1 1 2 2 3 6 6 7 8 9 11 11 11 10 9 10 13 12 8 8 10 11 11 11 12 11 12 12 12 11 10 10 10 9 8 8 7 5 6 18 24 23 22 24 26 25 25 25 23 24 27 29 30 30 30 30 30 30 31 31 31 31 32 33 33 31 30 31 30 30 30 30 29 28 28 27
6 4 4 6 7 8 10 10 8 6 5 3 2 2 1 1 3 4 4 7 10 14 15 13 11 10 10 11 11 9 8 10 12 13 13 12 11 11 12 12 12 11 10 10 10 9 10 11 11 8 7 17 23 23 20 17 16 17 19 21 23 27 30 32 33 34 33 32 32 33 32 32 32 32 31 31 31 31 31 31 32 31 31 31 30 29 28
4 3 4 5 6 8 9 9 10 8 7 5 3 3 2 1 1 2 3 6 9 12 14 14 12 10 9 10 12 9 7 9 12 13 13 12 12 12 12 12 13 13 12 12 11 10 10 11 12 12 11 9 9 13 13 11 11 12 14 17 21 25 28 32 35 35 35 34 34 33 33 34 34 33 32 32 32 32 32 33 34 32 31 31 31 31 30
4 2 4 6 8 7 4 5 9 9 8 6 4 4 4 2 0 2 4 4 4 5 7 7 8 9 8 8 8 4 2 6 10 10 11 12 11 11 11 11 12 13 13 13 12 11 11 11 12 13 13 11 10 9 8 8 9 10 12 15 17 20 24 28 32 34 35 35 34 32 32 33 34 35 35 34 35 35 35 34 35 34 33 33 33 33 32
5 2 5 7 5 3 2 5 8 9 9 8 6 6 8 7 4 4 3 1 1 1 1 2 2 4 4 5 6 5 4 3 6 7 8 9 9 8 8 8 9 10 10 11 12 12 12 13 13 14 15 15 15 15 15 15 16 17 17 18 18 20 21 23 24 27 29 31 32 33 33 33 33 35 36 37 37 37 37 36 36 35 34 33 34 34 33
6 5 7 6 3 4 6 8 9 8 8 7 7 7 7 7 7 7 5 2 2 2 1 3 3 3 2 4 6 7 6 6 6 6 6 6 5 5 5 5 6 5 6 7 8 10 11 11 13 14 15 15 16 16 17 19 21 22 23 25 25 24 23 23 23 23 24 28 31 33 34 36 35 35 37 41 40 38 37 37 37 38 35 34 34 34 35
7 7 7 6 7 7 5 6 7 7 7 6 6 6 5 6 8 9 8 7 5 3 2 2 4 6 6 6 6 7 9 10 11 10 8 6 4 4 5 6 6 5 5 5 6 7 8 9 10 12 13 14 14 14 16 18 20 21 22 23 23 22 22 22 20 19 19 23 28 33 35 36 36 36 38 41 41 39 38 37 38 39 37 35 35 35 36
7 8 8 7 7 4 2 4 8 8 8 8 5 5 5 5 6 7 8 9 10 9 6 4 4 6 8 9 8 9 11 13 13 12 10 7 5 4 4 5 6 6 6 5 6 6 7 8 10 10 11 12 13 13 15 16 17 18 19 19 19 19 18 18 16 14 14 15 19 22 27 30 32 35 39 41 41 40 39 38 38 38 37 37 36 35 35
8 8 8 7 5 2 3 7 8 6 7 6 3 4 6 6 6 6 7 7 7 6 5 5 6 5 6 8 9 10 12 14 13 12 9 6 4 4 4 5 6 6 6 6 5 5 6 7 8 10 10 11 11 12 13 14 14 15 16 16 16 16 16 14 12 11 10 9 10 12 14 16 20 25 32 39 41 38 36 37 37 37 38 38 35 33 32
9 8 9 7 4 3 5 6 5 4 3 3 4 5 5 3 3 3 5 5 5 5 5 5 5 5 6 7 8 9 10 11 11 10 7 5 3 3 3 4 4 5 6 6 6 6 5 5 6 8 9 9 10 11 11 12 13 13 13 12 12 12 12 10 8 7 7 7 6 7 9 11 13 17 17 23 32 33 33 33 34 35 36 36 34 32 32
9 8 9 8 5 5 6 6 5 4 3 4 6 5 3 2 2 2 4 5 5 4 5 5 5 5 5 6 7 8 8 9 9 8 7 4 2 2 2 2 3 4 5 5 5 5 5 5 6 6 7 7 7 9 10 11 11 12 12 11 10 10 9 8 6 6 6 6 6 6 8 10 13 16 14 12 21 29 31 31 32 33 34 35 35 34 34
9 8 9 8 6 6 7 7 6 5 4 5 6 5 4 5 4 3 5 6 6 6 6 5 5 4 3 4 6 6 7 8 7 7 6 5 4 2 1 1 2 2 3 3 4 4 4 5 5 6 6 7 7 7 8 9 10 10 11 11 11 10 9 8 6 4 4 6 6 5 5 7 7 10 11 12 17 24 28 30 31 31 32 33 32 31 31
8 9 9 7 4 4 5 6 6 6 7 9 9 7 7 7 5 4 5 6 7 7 6 6 6 4 4 4 5 5 5 6 6 6 5 5 3 2 1 1 1 1 2 2 3 3 3 3 4 4 6 7 7 8 8 8 9 9 10 11 11 10 9 9 8 6 5 5 5 5 4 4 5 5 5 6 7 11 18 25 31 33 32 32 32 30 28
10 9 8 7 6 6 6 5 6 7 9 10 9 8 8 7 5 4 5 6 6 5 5 6 5 4 4 4 4 4 4 4 5 5 4 3 3 1 1 1 1 1 1 1 2 2 3 3 2 3 4 5 6 7 7 8 9 9 9 10 10 11 11 11 10 10 9 7 7 5 4 3 3 4 4 4 4 3 4 9 18 24 26 27 29 30 30
11 10 8 8 10 11 9 8 9 9 9 9 8 8 8 8 6 4 4 5 5 5 5 5 5 5 4 4 3 4 4 4 4 4 4 3 2 1 1 0 1 1 1 0 1 1 1 2 2 2 3 4 5 6 6 7 7 8 8 9 10 10 11 12 12 12 12 12 11 10 9 9 8 7 6 6 4 2 2 2 3 8 11 13 17 20 23
12 12 12 12 12 11 10 9 9 9 8 8 8 9 9 8 7 5 4 5 5 5 5 5 5 5 4 4 4 5 5 5 4 4 5 4 3 2 1 1 1 1 2 1 1 0 1 1 1 2 2 3 4 5 5 6 6 7 7 7 8 8 9 10 11 12 12 12 13 14 14 15 15 14 14 13 11 9 7 6 5 6 7 8 10 12 15
10 10 10 11 10 10 9 9 8 9 9 8 9 9 10 9 7 6 5 5 6 6 5 5 5 5 4 4 4 5 6 6 5 5 5 5 4 3 3 2 2 2 2 2 2 2 1 1 1 2 2 2 3 4 4 4 5 5 5 5 6 6 7 7 8 9 10 10 11 13 14 15 15 15 16 16 15 15 15 15 13 13 12 11 11 12 14
10 9 9 9 8 8 8 8 9 9 9 9 9 9 9 8 7 6 6 6 5 5 5 5 5 5 4 4 4 5 5 5 5 5 4 4 4 3 3 2 1 1 1 1 2 2 1 1 1 1 2 2 2 2 3 3 4 4 4 4 4 4 5 5 6 7 8 8 9 10 11 12 12 13 13 13 12 14 16 16 17 17 17 16 16 15 16
12 13 13 10 9 9 9 8 9 9 8 9 9 8 8 8 7 7 6 6 6 5 4 5 5 5 5 4 5 6 6 6 6 5 4 4 3 3 2 2 2 1 1 1 1 1 1 1 1 0 1 2 2 2 3 3 3 4 4 4 5 5 4 4 5 5 6 7 7 8 9 9 10 11 11 11 11 11 12 13 15 17 18 19 20 20 19
12 13 13 11 9 9 9 8 8 8 8 8 9 8 8 8 7 7 6 6 6 6 5 6 6 6 6 5 6 6 7 7 6 6 5 5 4 3 3 2 2 2 2 2 2 2 1 1 1 1 2 2 2 3 4 4 5 5 5 5 6 6 6 5 5 5 6 6 7 7 8 9 9 10 10 11 11 11 11 11 12 14 16 17 19 19 19
11 12 13 11 9 9 9 9 9 9 9 8 9 9 8 8 8 7 6 6 6 6 6 6 7 7 7 7 7 7 7 7 7 6 6 5 5 4 4 3 3 3 3 3 3 3 3 4 4 4 4 4 4 4 5 5 6 6 7 7 7 7 7 7 7 7 7 7 7 8 8 8 9 9 10 10 11 11 12 12 12 13 14 14 15 17 18
12 12 13 12 10 9 9 9 9 9 9 9 9 9 9 8 8 7 7 7 7 6 6 7 7 7 8 8 8 8 7 7 7 7 6 5 5 4 4 4 4 4 4 5 5 5 5 5 6 6 6 6 6 6 6 6 7 7 8 8 8 8 8 8 9 9 9 9 9 9 9 9 9 9 10 10 11 11 12 12 13 13 14 14 14 15 15
13 13 13 12 10 9 8 8 9 9 9 9 10 10 9 8 8 8 7 7 7 7 7 7 8 8 8 8 8 8 8 8 8 7 6 6 5 5 5 5 5 5 5 6 7 7 7 7 7 8 9 9 9 9 9 9 9 9 9 10 10 10 11 11 11 11 11 11 11 11 11 11 11 10 10 10 11 11 12 12 13 13 14 14 15 15 15
14 12 12 11 9 9 9 9 10 10 10 10 9 9 9 9 9 8 8 7 7 7 7 7 7 8 8 8 8 8 8 8 7 6 5 5 5 6 5 5 6 6 6 7 9 10 10 9 9 10 11 12 12 13 13 13 13 12 12 12 12 12 13 13 13 13 13 13 13 13 13 13 12 12 12 12 12 12 12 13 13 13 14 14 15 15 15
14 12 11 11 10 10 10 9 9 9 10 11 10 9 9 10 9 9 9 9 9 9 8 8 8 8 8 8 8 8 8 8 7 7 6 5 6 7 7 6 6 6 7 8 10 11 11 11 11 12 12 13 13 14 14 14 14 14 14 15 14 14 14 14 14 14 14 14 14 14 14 15 14 14 14 14 14 14 14 14 14 14 14 14 15 15 16
14 13 13 12 10 9 9 10 10 11 12 12 10 10 10 10 10 10 10 10 11 10 10 9 10 9 8 8 8 8 8 8 8 7 7 7 8 8 8 7 6 7 8 9 10 11 11 12 12 12 12 13 14 14 15 15 15 15 15 15 16 16 16 16 16 16 16 16 16 16 15 15 16 16 16 16 16 16 16 16 16 16 16 16 16 16 16
16 15 15 13 11 10 11 12 12 13 14 13 12 11 10 10 10 10 10 11 11 11 10 10 10 9 8 9 9 8 7 7 7 7 8 8 8 8 7 7 8 9 10 10 11 12 12 13 13 14 14 14 15 15 16 16 16 17 16 16 16 16 16 17 17 17 17 17 17 17 17 17 17 17 17 17 17 17 18 18 18 18 18 18 17 18 18
17 17 16 15 14 13 13 12 12 13 14 14 12 11 11 11 11 11 11 11 12 11 11 11 10 9 9 9 8 8 8 8 8 9 9 8 8 9 9 9 10 11 11 12 13 13 14 14 15 15 15 15 16 16 16 17 17 17 18 18 18 17 17 17 17 17 17 18 18 18 18 18 17 17 17 18 18 18 19 19 19 19 19 19 19 19 19
17 18 18 17 17 16 14 14 14 14 15 15 13 13 13 13 12 12 12 12 12 12 12 11 11 10 11 10 9 9 9 9 9 10 10 10 11 11 11 12 12 13 13 13 14 15 15 15 15 15 15 16 16 16 17 18 18 18 18 18 19 19 19 18 18 18 17 18 18 18 18 19 19 18 18 18 18 18 19 20 21 21 21 21 21 21 20
18 19 20 19 19 18 17 16 16 16 16 16 15 14 14 13 13 13 13 13 12 12 12 11 11 11 11 11 10 10 10 10 11 11 12 12 13 13 14 14 14 14 15 15 16 16 17 17 17 17 17 17 17 18 18 19 19 20 19 19 19 20 21 20 19 19 19 19 19 19 19 19 20 20 19 19 18 18 19 20 22 23 23 23 23 22 21
20 21 22 22 21 20 19 18 18 17 17 16 15 14 14 14 14 15 14 13 12 12 12 11 12 12 12 11 11 11 11 12 12 12 13 14 14 14 15 15 15 16 17 17 18 18 18 18 19 19 20 20 20 20 20 20 20 20 21 20 20 21 22 22 21 21 21 21 21 21 21 20 20 21 21 20 19 19 19 20 22 24 25 25 25 24 22
20 21 21 21 20 19 18 17 17 17 17 17 16 16 16 17 17 16 15 13 12 12 12 12 12 12 12 12 12 13 13 13 13 14 14 14 15 15 16 16 17 18 18 19 19 19 19 20 20 21 21 21 21 21 21 21 20 20 20 21 21 21 22 22 22 22 22 23 23 24 23 21 20 21 21 20 20 21 21 21 22 24 24 25 25 25 24
18 19 21 21 20 19 18 18 17 18 18 18 18 17 18 17 17 15 14 13 13 13 13 13 13 13 13 13 13 13 13 13 13 14 14 14 15 16 17 18 18 19 19 19 19 20 20 20 20 20 21 21 21 21 21 20 20 21 21 21 21 22 22 22 22 22 22 22 23 22 21 21 20 20 19 18 19 21 22 23 23 24 24 25 26 26 26
19 21 22 23 22 21 20 19 19 19 19 18 18 17 17 16 16 15 14 14 14 14 14 13 14 14 14 14 13 13 13 13 13 13 14 15 16 16 17 18 18 19 19 20 19 20 20 20 20 20 20 20 21 21 21 21 21 22 22 22 22 22 21 21 21 21 21 21 20 19 19 19 19 19 18 17 18 19 21 23 24 25 25 25 26 27 27
20 22 23 23 22 21 20 19 19 19 19 19 18 18 17 16 16 15 14 14 14 14 14 14 14 14 13 13 13 13 13 13 14 14 15 16 16 16 17 18 18 19 20 20 20 20 20 21 20 20 20 21 21 21 21 21 21 22 22 22 22 22 21 21 20 20 20 20 20 19 18 18 17 17 18 18 18 18 20 22 23 24 25 25 27 28 28
20 22 22 22 21 20 19 19 19 18 18 18 18 18 18 16 15 14 14 14 14 14 14 14 13 13 13 12 12 13 13 14 15 15 16 16 16 16 17 17 18 19 19 20 20 20 20 21 20 20 20 21 21 21 21 21 21 21 21 21 21 21 21 21 21 20 20 20 19 19 18 17 17 18 20 20 19 19 20 21 22 23 24 25 27 28 28
21 22 22 21 20 20 19 19 18 17 17 17 17 17 17 16 15 14 14 13 13 13 13 13 13 13 13 13 13 13 14 15 15 15 15 16 16 16 17 18 18 19 20 20 20 20 21 21 21 21 21 21 21 21 21 21 21 21 21 21 21 21 21 21 21 21 21 20 20 20 19 18 18 19 20 21 21 21 22 23 23 24 24 25 27 28 28
22 22 21 20 20 20 19 18 17 17 17 17 17 16 16 15 15 14 14 13 13 13 13 13 13 13 13 14 14 14 14 15 15 15 15 16 16 17 18 19 19 19 20 20 20 20 21 21 21 20 20 20 20 20 20 20 20 20 20 20 20 20 20 20 21 21 21 21 21 20 20 20 20 20 20 21 22 23 23 24 25 25 25 26 27 28 29
22 23 22 20 20 20 19 17 16 17 17 18 17 16 16 15 15 14 13 13 13 13 13 13 13 14 14 14 14 14 14 15 15 15 16 17 17 18 20 20 19 19 20 20 20 20 20 20 20 19 19 19 19 19 19 20 20 20 21 21 20 20 20 20 20 20 19 20 20 20 20 20 20 19 19 20 21 23 24 25 25 25 25 26 28 29 30
23 23 22 21 21 20 19 18 17 17 17 18 17 16 16 16 15 14 13 13 13 13 14 14 14 14 14 14 14 14 14 15 16 16 17 18 19 20 21 21 20 20 20 20 20 19 19 18 18 18 18 18 18 18 19 19 20 20 20 20 20 19 19 20 19 18 17 18 18 18 19 19 19 18 19 20 21 23 25 27 27 26 26 27 28 30 30
24 24 24 23 22 21 20 18 17 17 18 18 17 16 16 15 15 14 14 13 13 14 14 14 14 14 14 14 15 15 15 15 16 17 18 19 20 20 21 21 20 19 19 19 18 17 17 16 16 16 16 17 17 17 17 17 18 18 18 19 19 19 18 18 18 17 17 17 16 16 17 18 18 18 18 19 21 23 25 26 28 28 28 28 29 30 30
24 25 25 24 23 23 21 19 18 18 18 18 17 16 15 15 14 14 14 14 14 15 15 15 15 14 14 14 15 15 15 16 17 19 19 20 20 20 20 20 19 18 17 16 15 15 14 14 15 15 15 15 15 16 16 16 16 16 17 18 18 19 18 18 17 17 17 16 16 16 16 16 16 16 17 18 19 21 23 24 26 27 28 28 30 31 31
24 25 26 25 25 24 22 20 19 18 18 17 16 15 15 15 15 14 14 15 15 15 15 15 15 15 15 15 16 16 17 18 19 19 20 20 19 18 18 17 17 15 14 13 13 12 12 13 13 14 14 13 13 13 14 14 15 16 16 17 18 19 19 19 18 18 18 17 17 16 16 16 16 16 17 18 19 20 21 23 24 25 26 27 29 30 32
24 25 26 27 27 26 23 21 20 19 18 17 16 16 15 15 15 15 15 15 15 15 16 16 16 16 16 17 17 18 19 20 20 19 19 18 18 17 16 15 14 13 12 11 11 11 11 12 12 12 12 12 12 13 13 14 14 15 16 17 18 19 19 19 20 20 20 19 18 17 17 16 16 16 17 18 19 20 21 22 23 24 25 26 27 27 28
24 26 27 28 28 27 25 23 22 21 19 18 16 15 15 15 15 15 15 15 15 16 17 17 18 18 18 19 19 20 21 21 20 19 18 17 16 15 14 13 12 11 11 11 11 11 11 11 11 11 11 12 12 13 13 14 14 15 15 16 16 17 18 18 19 19 20 20 20 19 19 18 18 17 17 18 19 20 20 21 22 24 25 25 25 24 25
23 25 27 28 28 27 26 24 23 22 20 17 16 15 16 16 15 15 15 15 16 17 18 19 19 20 21 21 22 22 22 21 19 17 16 15 14 13 12 12 11 11 11 11 11 11 11 11 11 11 11 11 12 13 13 14 14 15 15 15 15 16 16 16 16 17 18 18 18 19 19 19 19 19 19 19 19 20 20 20 21 22 23 23 23 24 25
22 24 25 27 27 27 26 25 24 22 20 18 17 17 17 16 16 16 16 16 17 18 19 20 21 22 22 22 23 23 22 20 18 16 15 13 13 12 12 11 11 11 11 11 11 11 11 11 11 10 10 11 12 13 13 14 14 14 14 14 14 14 14 14 14 15 15 16 17 17 18 18 18 18 19 19 20 20 20 20 20 20 20 21 21 22 24
21 23 24 25 26 25 25 25 24 22 20 19 19 18 17 17 17 17 17 17 18 19 21 22 23 23 24 24 24 22 20 18 16 14 13 12 12 12 12 11 11 11 11 10 11 11 11 11 11 11 11 11 12 13 13 14 14 14 13 13 13 12 11 11 11 11 12 13 14 14 15 16 16 17 17 18 19 19 19 19 18 18 18 19 21 22 24
21 23 24 24 24 24 25 24 23 22 21 21 20 19 19 19 18 18 17 18 19 21 22 23 24 24 23 23 21 19 17 16 14 13 13 12 12 12 11 11 11 11 11 11 11 11 11 11 11 12 12 12 12 13 13 14 14 13 13 12 12 12 11 10 10 10 10 11 12 12 13 13 14 14 15 16 17 17 17 18 18 18 18 19 20 21 23
23 25 26 26 26 26 26 25 24 23 23 23 22 21 21 20 19 18 18 19 21 22 23 22 22 21 20 19 18 16 15 14 13 13 12 12 12 11 11 11 11 11 11 11 10 11 11 11 12 12 12 13 13 13 14 14 13 13 13 12 12 12 11 10 10 10 10 11 11 12 12 12 13 13 13 13 14 14 15 16 16 16 17 17 17 18 19
Wind_Direction
263 272 272 268 262 262 256 255 263 267 271 273 259 250 258 268 268 263 239 206 173 169 202 210 196 191 205 217 220 223 224 221 210 198 192 195 197 189 180 180 181 180 185 188 183 182 189 207 230 238 235 227 221 220 221 223 226 228 226 222 223 230 235 239 244 246 244 241 239 240 240 238 238 239 237 233 230 232 235 235 236 239 240 241 242 243 243
252 255 262 254 251 258 261 263 270 277 281 279 258 240 243 261 274 285 270 232 185 179 199 196 185 189 209 218 216 204 202 210 204 188 182 192 200 196 185 179 177 175 180 187 188 192 199 195 216 240 243 243 240 232 229 230 232 237 241 236 229 232 239 243 246 246 245 243 242 243 242 240 239 240 242 239 231 228 233 235 236 237 239 240 241 242 244
240 238 254 251 248 252 253 256 260 255 253 251 208 197 189 256 290 304 277 241 212 205 205 197 196 203 209 215 215 198 186 196 196 185 186 194 197 198 197 190 186 183 184 187 182 172 166 152 140 217 235 241 249 247 240 239 238 243 252 255 247 244 245 246 247 247 247 247 246 246 246 244 241 239 242 244 239 231 229 232 235 237 237 238 240 241 242
232 213 249 254 250 252 251 250 246 236 239 237 206 204 196 257 301 299 252 231 227 222 214 205 205 212 212 210 207 193 175 184 192 188 190 199 199 201 209 207 200 198 198 201 201 185 161 144 130 128 189 227 239 245 248 250 250 252 257 259 257 254 251 250 248 248 249 250 250 250 250 249 247 244 243 245 246 243 238 233 233 234 236 238 238 240 241
242 213 260 265 253 252 247 236 231 230 236 241 233 233 242 260 5 324 252 232 228 224 219 216 215 215 212 206 201 187 153 164 186 187 188 202 211 213 217 215 209 209 209 209 211 208 194 175 164 153 142 152 201 232 249 262 269 271 268 263 261 259 256 253 251 249 249 251 253 254 253 252 251 249 247 245 246 248 247 242 236 232 234 238 238 238 239
265 244 263 262 251 250 243 225 236 240 236 233 227 232 243 248 307 264 248 237 217 201 197 201 212 220 223 213 208 211 160 168 180 182 187 201 213 219 224 223 218 217 219 222 224 222 217 209 203 201 196 184 177 189 212 236 256 267 270 270 268 264 260 256 252 249 248 249 252 253 252 252 252 250 248 247 246 246 247 249 246 237 231 234 237 237 237
269 262 256 253 245 258 304 285 265 253 248 246 240 245 258 255 226 202 202 180 29 321 198 169 190 217 238 241 237 261 292 225 192 188 194 202 209 216 225 234 233 228 228 231 234 234 230 223 220 223 228 229 225 221 222 229 236 243 249 254 257 259 259 256 251 248 247 247 249 250 250 251 251 250 247 245 244 244 244 248 252 247 238 234 237 239 239
260 254 246 252 296 316 287 283 281 262 253 256 248 249 265 252 215 195 192 182 66 33 293 274 279 265 257 255 249 260 283 278 256 241 232 228 230 236 245 258 260 250 239 238 239 240 240 236 232 231 236 240 242 241 241 241 242 244 246 248 251 254 255 255 255 254 254 255 255 254 252 251 250 249 247 243 241 241 242 243 248 251 248 240 238 240 241
251 261 253 263 297 296 253 259 282 266 241 239 241 242 251 241 219 210 221 240 258 278 285 272 271 265 256 251 249 257 269 275 276 274 270 265 264 272 279 283 288 286 270 259 256 251 245 242 239 236 236 239 243 247 250 250 247 245 246 250 254 257 258 259 260 263 269 273 270 261 254 252 251 249 247 245 241 239 240 240 243 248 248 243 240 239 241
240 268 269 265 278 278 215 264 291 276 244 236 240 234 230 245 245 225 226 245 255 259 262 252 249 255 250 245 242 247 256 265 271 274 275 273 267 261 266 276 282 286 286 278 270 263 255 247 242 239 238 237 238 243 250 253 249 245 246 251 257 260 260 258 258 263 274 290 293 276 261 258 258 255 251 249 246 241 238 238 240 243 245 244 241 239 241
233 255 264 265 272 269 270 291 300 282 251 241 243 233 230 256 273 238 217 231 246 249 247 242 250 256 245 242 247 249 254 263 270 273 273 271 262 252 256 266 272 276 285 290 288 282 271 258 250 245 243 240 235 238 245 249 248 248 252 256 257 258 258 256 263 273 274 290 320 316 289 277 275 267 254 244 243 243 240 238 238 238 240 243 243 241 244
230 242 258 267 270 258 266 290 306 287 247 217 236 243 227 240 265 212 194 214 238 245 238 233 246 251 236 242 258 261 263 269 272 272 270 263 249 246 256 263 269 275 281 287 295 298 291 283 270 257 251 245 237 239 246 250 249 249 253 256 255 258 262 265 283 306 294 278 294 301 285 280 287 289 268 236 231 240 245 242 239 238 238 241 244 245 248
227 239 257 263 255 253 262 273 280 270 237 215 237 243 206 206 235 200 201 219 228 236 238 233 236 243 246 259 270 270 269 270 267 261 256 249 239 231 245 261 268 275 284 290 299 305 302 297 290 279 273 267 254 249 252 254 250 249 253 259 261 266 272 276 294 323 325 312 304 287 277 278 281 288 290 258 237 243 248 246 244 240 237 238 241 244 247
231 237 253 259 254 253 257 258 260 253 231 229 240 240 234 248 264 253 230 229 231 235 239 240 242 253 274 278 275 272 269 267 264 252 240 240 245 238 228 264 273 277 285 294 307 317 316 306 299 294 292 291 287 281 274 269 264 259 261 265 268 273 278 278 283 307 324 331 338 334 317 310 300 284 281 271 254 248 247 247 246 241 235 234 236 239 242
226 234 243 250 256 256 251 254 259 244 228 234 240 238 245 258 270 263 242 232 233 240 247 254 259 269 279 272 269 274 270 260 249 235 222 222 233 234 220 210 215 249 271 276 291 304 311 310 305 301 300 300 302 302 297 291 286 281 274 270 270 276 283 285 281 280 289 307 326 346 357 354 349 329 299 287 274 259 252 249 246 243 238 234 234 236 238
226 236 238 237 244 259 260 254 250 238 232 239 245 243 247 256 262 256 238 228 231 244 258 263 260 255 254 254 259 267 265 245 226 215 202 195 200 205 201 158 139 159 200 228 259 278 288 296 294 294 298 301 304 307 306 303 299 295 290 282 276 279 285 289 286 280 280 282 285 297 314 315 324 334 329 330 344 333 286 260 247 242 241 240 240 242 243
234 240 242 243 249 259 260 255 250 242 233 234 240 241 246 256 262 253 231 225 232 248 258 254 241 231 233 233 230 235 236 226 209 186 169 167 176 193 223 184 76 97 127 164 240 261 285 299 304 303 299 301 308 312 311 310 307 304 300 295 292 291 291 292 290 285 281 277 271 271 274 271 267 270 274 278 284 292 319 317 260 240 239 242 245 247 248
243 243 245 249 253 257 255 249 246 240 230 226 234 245 254 263 265 255 236 228 235 246 253 244 225 212 214 213 204 202 206 205 188 158 148 151 150 151 150 89 72 87 100 108 126 145 302 313 326 325 316 315 318 317 317 318 318 316 314 311 307 306 303 299 297 294 289 283 278 276 276 274 270 266 261 256 250 243 240 240 241 244 252 264 269 262 257
240 242 246 248 247 247 246 242 239 237 237 237 241 249 258 262 260 252 241 238 244 248 243 229 214 205 206 206 196 192 194 190 175 159 147 140 137 135 124 102 87 92 101 114 122 124 115 13 360 348 348 340 328 325 326 329 330 329 328 327 324 320 316 310 305 303 300 294 288 285 283 282 280 277 273 265 254 245 239 235 235 241 247 258 268 270 270
230 235 245 247 243 241 238 236 237 240 243 247 248 248 252 254 250 246 242 241 245 240 220 207 204 198 196 197 187 182 183 177 171 163 151 143 142 138 130 129 124 105 111 126 126 128 125 92 53 27 22 16 358 350 344 338 344 345 341 343 347 344 339 332 324 319 315 311 306 300 296 295 294 292 290 286 276 261 252 247 246 248 249 249 251 257 265
229 235 243 245 243 240 235 230 235 240 241 246 249 246 245 246 246 244 242 238 236 227 207 197 196 188 184 186 184 179 178 176 175 172 169 171 178 174 166 164 160 171 206 206 171 144 120 93 70 22 10 2 352 350 343 334 334 335 336 341 343 344 347 344 336 330 326 322 321 318 315 313 313 311 307 306 302 293 281 270 263 260 259 258 259 261 262
231 237 242 241 236 238 240 236 235 239 240 242 245 243 240 242 241 235 231 227 224 219 206 196 194 191 189 187 185 182 179 179 180 181 183 187 192 196 198 193 187 197 216 228 239 257 271 279 280 284 297 307 313 318 321 322 321 319 321 324 325 327 332 333 332 331 328 326 324 321 319 317 316 315 313 310 308 305 300 292 283 276 272 269 267 267 265
230 236 240 240 232 233 242 241 235 237 238 236 237 237 235 235 232 224 216 208 204 202 199 192 188 188 189 187 188 189 188 185 185 188 191 193 196 202 209 210 209 214 221 230 240 252 264 272 280 284 284 287 292 295 300 305 309 311 314 315 314 314 314 315 317 318 318 319 319 317 316 315 312 310 308 306 305 303 301 298 293 289 284 279 275 272 269
228 232 236 238 230 229 240 240 232 232 232 228 228 231 231 228 222 213 206 201 195 191 189 186 185 187 191 192 195 197 197 198 199 204 209 211 211 214 220 227 233 235 238 243 247 250 257 267 275 279 280 280 281 281 282 285 288 293 298 301 303 305 304 305 306 306 307 308 308 308 308 308 307 307 305 303 302 300 298 297 295 292 289 286 282 278 275
224 226 230 236 235 231 230 222 215 218 221 220 221 225 225 221 215 209 207 204 201 198 196 194 195 195 195 197 202 205 208 211 211 213 219 224 223 220 221 229 243 252 258 264 263 260 258 260 266 273 278 281 282 283 284 283 283 284 285 287 289 292 294 295 296 297 298 299 299 300 300 299 299 300 299 299 298 297 295 294 293 292 291 289 287 284 282
222 224 228 234 231 222 213 208 207 210 214 216 219 222 222 219 215 212 212 211 211 211 210 210 210 204 196 194 196 199 206 213 215 217 221 228 239 243 237 235 246 258 265 269 269 270 271 272 272 276 280 284 286 288 289 289 290 289 289 288 288 288 289 290 291 292 292 293 293 293 294 294 295 295 294 293 292 292 291 290 289 288 287 287 288 288 288
222 225 228 230 226 218 214 213 212 213 216 221 225 228 227 224 218 216 215 212 212 214 214 217 218 210 200 199 200 202 208 214 215 216 216 222 240 251 248 239 241 251 259 267 274 279 283 284 283 282 283 285 287 288 289 291 292 293 293 294 294 293 293 293 292 292 291 290 289 289 288 289 290 290 290 290 289 287 286 285 284 284 283 282 283 284 286
219 220 223 226 227 222 215 213 214 217 222 228 230 229 227 225 222 221 219 213 211 209 209 213 217 214 212 214 215 216 219 219 217 218 219 220 227 237 241 239 243 254 263 271 278 283 285 286 286 287 287 287 288 289 290 291 291 291 292 293 293 294 295 295 294 294 293 291 290 288 286 285 285 285 286 286 286 285 284 282 280 280 279 279 279 280 281
221 220 219 218 218 215 212 214 220 225 230 233 233 229 227 226 225 226 225 221 217 213 210 214 217 218 220 224 224 226 230 228 229 233 234 230 231 238 248 256 262 267 271 276 280 282 284 285 286 287 288 288 288 288 289 290 290 290 290 290 289 290 291 291 292 292 292 291 290 289 287 285 283 282 282 282 283 283 283 281 281 279 278 278 277 277 277
224 221 217 216 219 221 222 225 232 236 237 237 234 229 226 226 228 230 230 227 226 225 224 224 226 225 225 224 223 227 230 229 232 237 242 245 251 259 265 269 271 274 277 280 282 283 284 284 285 286 287 288 289 289 288 288 288 289 289 290 291 291 290 289 289 288 288 288 287 286 286 285 283 281 280 279 280 282 282 283 282 279 277 276 275 275 275
225 220 217 218 222 227 229 233 236 238 237 236 231 227 227 228 231 234 232 230 231 234 236 239 239 237 235 232 230 231 235 237 240 246 252 260 266 269 272 274 276 278 280 281 282 283 283 284 285 285 286 287 287 288 288 287 288 288 289 291 293 294 294 294 292 290 287 285 283 282 281 281 280 279 278 276 276 277 279 282 283 282 280 278 275 274 275
221 219 218 220 223 227 231 234 235 235 234 230 226 225 228 231 232 233 232 232 236 241 245 248 248 246 245 246 244 244 246 250 253 257 261 265 268 270 274 277 280 282 285 286 287 288 289 289 290 291 290 290 290 289 288 287 288 289 290 291 293 294 295 296 295 293 290 286 282 279 277 276 276 276 276 275 274 273 274 275 278 280 280 280 278 276 275
221 219 220 222 224 227 230 233 234 233 232 227 223 223 226 226 226 228 230 232 238 244 248 249 250 248 248 249 249 250 252 255 258 261 264 267 270 272 275 278 281 284 287 288 289 290 291 293 293 294 294 294 293 292 291 291 290 290 291 292 293 293 293 293 293 292 290 288 285 281 277 274 272 272 273 273 272 272 271 270 271 273 275 277 277 277 275
228 227 225 226 228 231 234 235 234 232 226 219 216 218 221 224 226 229 231 232 235 241 245 246 246 244 244 246 249 252 256 260 263 266 267 269 273 276 278 281 283 284 285 286 287 287 288 289 290 291 291 291 290 289 289 289 288 288 289 290 290 289 290 290 290 289 288 286 285 284 282 278 272 268 269 271 273 272 270 269 268 269 270 271 273 274 274
229 226 223 223 225 229 231 229 227 224 220 215 214 217 222 226 228 229 229 230 235 241 245 243 239 238 240 244 248 252 257 260 261 263 266 269 273 277 279 280 281 282 281 282 284 285 286 287 288 289 289 289 288 288 288 288 289 289 289 289 289 289 289 289 289 288 286 285 284 283 282 280 276 272 270 271 273 273 273 271 270 269 268 269 269 270 270
224 221 220 219 220 224 227 225 220 218 215 213 213 218 223 226 225 225 227 232 236 238 236 232 231 234 239 243 246 249 254 258 259 262 268 272 275 277 279 280 281 282 283 284 286 288 289 290 290 290 290 289 289 289 290 291 292 292 292 293 292 291 290 289 288 287 286 284 283 280 278 278 278 279 277 274 272 271 271 272 272 270 269 268 269 269 268
222 221 221 222 223 226 226 222 217 216 214 212 212 215 220 223 223 224 227 229 229 229 229 229 232 237 240 243 246 251 256 262 266 271 275 277 278 279 279 280 282 284 286 288 290 291 292 292 292 291 290 290 290 291 292 292 293 293 294 294 294 293 292 291 289 288 286 285 283 280 278 277 278 277 276 273 270 267 266 267 268 269 270 269 270 271 271
221 221 222 223 223 223 220 215 214 217 217 214 213 214 217 218 218 219 220 222 225 229 232 234 235 238 241 245 251 257 262 267 270 273 274 275 276 278 279 281 283 286 288 290 292 292 292 292 293 292 292 292 292 293 293 293 294 294 294 294 294 294 294 293 292 290 289 287 284 281 279 278 276 274 272 270 267 264 263 263 264 267 269 271 272 274 274
217 220 221 220 218 216 214 213 215 218 217 214 212 212 213 215 217 218 220 224 227 231 234 235 237 240 245 251 256 260 263 266 269 272 274 277 279 281 283 285 286 288 290 291 292 292 293 293 293 293 293 294 294 295 294 294 295 294 294 294 294 294 294 294 293 292 289 286 283 280 279 276 273 271 270 270 268 265 264 264 264 266 269 272 274 275 275
214 219 222 219 215 215 216 216 216 216 212 209 209 210 212 215 218 219 221 224 227 231 236 239 242 246 250 254 258 261 265 269 274 277 280 283 284 286 286 287 288 289 290 290 290 291 291 292 292 293 294 295 295 296 296 297 297 297 297 296 296 295 295 293 291 289 288 286 284 283 280 277 272 269 267 268 267 266 263 263 263 264 266 268 271 272 272
213 218 222 219 215 215 218 219 217 214 210 208 208 209 211 213 215 217 220 224 228 234 238 242 247 250 254 258 262 267 271 275 280 283 285 286 287 287 288 288 289 289 289 289 290 290 290 290 291 292 293 295 297 297 298 298 298 298 298 298 297 296 294 292 289 288 286 285 283 281 278 274 272 269 266 264 263 263 262 262 262 262 263 265 266 267 268
213 217 221 220 216 214 217 221 221 216 212 211 211 211 212 213 215 218 222 226 232 238 243 248 251 255 260 265 270 274 278 282 285 286 287 288 288 289 288 289 290 290 289 289 289 289 288 289 290 292 294 296 296 296 297 297 297 298 298 298 298 296 295 294 293 292 289 286 284 281 278 275 272 269 266 263 261 261 261 262 262 262 262 263 264 265 267
214 215 219 221 219 215 216 222 224 219 214 212 213 213 214 216 218 222 226 232 238 244 249 253 257 261 266 271 275 279 282 285 286 286 286 286 287 287 287 288 289 288 287 287 287 286 287 288 289 291 293 294 294 295 295 296 297 298 299 299 298 298 297 296 295 294 291 289 286 284 282 279 275 271 267 264 262 263 264 264 264 263 263 263 263 263 264
214 214 217 220 221 219 219 223 225 221 215 213 214 215 218 221 224 228 232 237 243 249 254 258 262 267 271 275 278 281 283 285 285 286 287 287 287 286 285 285 285 284 283 282 282 283 285 287 289 290 291 293 293 295 298 300 301 302 302 301 300 299 299 298 297 294 292 290 287 284 281 279 276 273 269 265 262 262 263 263 263 262 262 263 263 262 260
214 215 217 220 221 221 222 226 226 221 215 215 217 220 224 228 231 234 238 243 249 255 260 263 267 270 273 275 278 280 282 284 285 286 286 287 286 285 284 282 281 280 278 278 279 281 284 286 287 289 291 292 294 297 300 301 302 303 303 302 302 301 300 299 297 295 293 292 289 285 282 279 275 271 267 264 263 262 262 262 263 264 264 265 265 263 262
214 215 216 218 220 221 222 224 224 219 217 219 223 226 230 234 237 240 246 252 258 263 266 269 271 274 275 275 276 279 282 284 284 283 283 284 285 285 282 280 278 276 276 277 279 281 283 285 286 288 291 293 296 298 299 300 302 303 304 304 303 303 302 301 299 296 294 292 290 287 285 282 278 274 270 268 267 267 266 266 268 268 268 268 267 267 266
215 213 214 215 217 218 219 221 220 219 221 225 229 232 236 239 242 247 254 261 267 270 273 274 276 276 276 275 277 281 285 285 283 281 281 282 282 281 279 276 274 274 275 277 279 281 282 284 286 289 293 296 299 300 302 303 305 306 305 305 304 304 303 303 302 299 297 295 292 289 286 283 281 279 276 274 273 272 272 272 272 271 270 269 270 271 271
216 213 213 214 215 216 219 220 221 223 227 231 234 237 240 244 248 255 263 270 274 276 278 279 279 278 277 278 280 284 286 284 281 279 279 279 278 276 273 270 270 272 274 276 279 281 283 286 289 294 298 301 302 304 306 308 309 309 308 307 306 305 305 305 305 304 302 301 299 295 291 288 286 284 281 278 276 275 274 274 273 271 268 266 265 266 266
213 212 211 211 213 216 219 222 224 227 231 234 236 241 245 251 257 263 269 274 278 280 281 281 280 279 279 281 284 286 285 281 276 275 274 273 271 269 268 267 268 270 273 276 280 283 286 289 293 297 301 303 305 307 310 311 311 311 310 309 309 310 310 310 309 307 305 304 302 299 296 294 292 290 287 285 283 282 281 279 277 272 267 264 263 264 266
214 211 210 212 215 218 222 226 229 232 235 238 241 246 252 257 261 266 270 275 279 281 282 282 281 280 281 283 285 284 280 275 271 270 269 267 265 266 266 267 269 271 274 277 281 285 288 292 296 299 302 304 306 307 308 308 308 308 309 310 311 313 314 314 314 314 313 311 309 307 305 302 301 300 298 295 295 294 293 291 286 280 273 269 267 267 268
216 215 214 215 218 221 224 228 231 233 236 240 244 248 253 257 260 264 269 276 281 285 286 285 283 282 281 282 281 278 272 268 266 265 264 264 264 265 267 269 271 274 277 280 284 288 292 295 298 299 300 302 303 303 303 303 304 305 306 308 309 311 314 316 317 319 321 320 319 318 316 314 313 311 308 304 302 300 298 294 291 286 280 275 272 271 270
222 221 218 216 217 220 223 225 227 229 234 238 243 248 253 257 259 264 270 278 285 288 288 285 282 281 279 277 273 268 263 260 260 260 262 264 266 268 270 272 274 276 280 285 289 292 295 296 297 298 298 298 298 297 297 298 299 300 302 304 305 306 309 312 314 316 318 318 319 320 320 320 320 319 317 314 310 306 302 297 294 290 287 285 283 282 281
Height
3163 3163 3163 3163 3163 3163 3163 3164 3164 3164 3164 3164 3164 3164 3164 3164 3164 3161 3158 3159 3160 3161 3161 3161 3160 3161 3162 3162 3162 3161 3160 3160 3160 3161 3161 3161 3161 3161 3162 3162 3162 3163 3163 3164 3164 3164 3164 3164 3165 3166 3168 3171 3173 3175 3176 3178 3181 3182 3181 3181 3183 3186 3188 3190 3191 3193 3194 3195 3196 3197 3198 3200 3201 3202 3203 3203 3203 3205 3207 3208 3209 3210 3211 3211 3212 3213 3214
3163 3163 3162 3162 3163 3162 3162 3163 3162 3162 3163 3162 3162 3163 3163 3162 3161 3159 3159 3159 3159 3159 3159 3159 3159 3160 3160 3160 3160 3160 3159 3159 3159 3159 3159 3159 3159 3160 3160 3161 3161 3162 3162 3162 3162 3162 3161 3162 3163 3164 3166 3168 3170 3172 3175 3177 3179 3180 3179 3178 3179 3182 3185 3187 3188 3189 3190 3191 3193 3194 3195 3197 3198 3199 3200 3200 3200 3200 3203 3205 3206 3207 3208 3209 3210 3211 3211
3161 3161 3162 3161 3161 3161 3161 3161 3161 3161 3162 3161 3161 3161 3161 3160 3160 3158 3158 3158 3158 3158 3158 3158 3158 3159 3159 3159 3159 3160 3160 3159 3158 3157 3157 3158 3158 3159 3159 3160 3160 3161 3161 3161 3161 3161 3161 3161 3162 3163 3165 3168 3170 3172 3174 3176 3177 3177 3177 3176 3176 3179 3181 3183 3184 3185 3186 3188 3189 3190 3192 3194 3195 3196 3198 3199 3199 3197 3198 3200 3202 3204 3205 3206 3207 3208 3209
3159 3160 3161 3160 3160 3160 3160 3160 3160 3161 3161 3161 3161 3161 3160 3160 3159 3158 3158 3158 3157 3157 3157 3157 3157 3157 3158 3159 3160 3160 3160 3159 3157 3155 3156 3158 3159 3158 3158 3159 3159 3160 3161 3161 3161 3161 3160 3161 3162 3163 3165 3167 3170 3172 3173 3174 3175 3175 3175 3175 3175 3176 3178 3179 3180 3181 3183 3184 3185 3186 3188 3190 3191 3193 3194 3196 3197 3196 3195 3196 3197 3199 3201 3203 3204 3205 3206
3157 3158 3159 3159 3159 3158 3157 3158 3158 3159 3160 3160 3160 3160 3159 3159 3158 3158 3158 3157 3156 3156 3156 3156 3157 3158 3158 3159 3160 3161 3160 3158 3155 3154 3154 3156 3157 3157 3158 3158 3158 3159 3160 3160 3160 3160 3160 3161 3162 3163 3164 3166 3168 3170 3171 3171 3172 3172 3173 3173 3173 3173 3173 3174 3175 3177 3179 3181 3182 3183 3185 3186 3187 3189 3190 3191 3192 3193 3193 3194 3193 3194 3196 3199 3200 3201 3203
3157 3157 3158 3158 3157 3155 3154 3155 3157 3157 3158 3158 3159 3159 3158 3158 3158 3158 3158 3157 3156 3156 3155 3155 3157 3158 3159 3159 3159 3160 3159 3157 3154 3153 3153 3154 3156 3156 3157 3157 3158 3158 3159 3159 3160 3160 3160 3161 3161 3163 3164 3164 3165 3167 3168 3169 3170 3170 3171 3171 3170 3170 3170 3170 3170 3172 3175 3177 3178 3179 3181 3182 3183 3185 3186 3187 3187 3188 3189 3190 3191 3190 3190 3193 3195 3196 3198
3157 3157 3157 3156 3154 3152 3153 3155 3155 3155 3156 3156 3157 3158 3157 3157 3158 3158 3157 3156 3156 3156 3155 3155 3156 3158 3158 3158 3157 3158 3159 3157 3155 3154 3154 3154 3154 3155 3156 3156 3157 3157 3158 3158 3159 3159 3160 3160 3161 3162 3163 3163 3164 3165 3166 3166 3167 3168 3168 3168 3168 3167 3167 3167 3167 3168 3170 3172 3173 3175 3176 3178 3179 3180 3181 3182 3182 3183 3184 3186 3187 3187 3187 3189 3191 3193 3195
3156 3156 3155 3154 3152 3152 3153 3154 3153 3154 3154 3155 3156 3156 3156 3156 3157 3157 3156 3156 3156 3156 3156 3156 3157 3157 3157 3157 3156 3156 3158 3157 3156 3156 3155 3154 3154 3154 3155 3156 3156 3157 3157 3158 3158 3159 3159 3160 3160 3161 3161 3162 3163 3163 3164 3164 3164 3165 3165 3166 3166 3166 3165 3165 3165 3166 3167 3169 3169 3170 3171 3172 3173 3175 3176 3176 3177 3178 3179 3181 3183 3185 3186 3188 3188 3189 3191
3155 3154 3153 3152 3152 3152 3152 3152 3152 3153 3153 3154 3155 3155 3155 3155 3155 3156 3156 3156 3156 3156 3156 3156 3156 3157 3156 3155 3155 3156 3157 3157 3157 3157 3156 3155 3154 3154 3155 3155 3156 3156 3157 3157 3158 3158 3158 3159 3159 3160 3160 3161 3161 3161 3162 3162 3162 3162 3163 3163 3164 3164 3164 3163 3163 3164 3165 3165 3165 3165 3166 3167 3168 3169 3170 3171 3171 3171 3174 3177 3179 3180 3183 3185 3185 3186 3187
3154 3153 3152 3151 3150 3150 3151 3152 3151 3151 3152 3152 3153 3154 3154 3154 3154 3154 3154 3154 3154 3155 3155 3156 3156 3156 3156 3155 3155 3156 3156 3156 3157 3157 3156 3155 3155 3155 3155 3155 3156 3156 3157 3157 3157 3158 3158 3158 3158 3159 3159 3159 3160 3160 3160 3160 3160 3161 3161 3162 3162 3162 3162 3162 3162 3162 3162 3162 3162 3161 3161 3162 3164 3164 3165 3165 3166 3167 3169 3172 3174 3176 3179 3181 3181 3182 3183
3153 3152 3150 3149 3149 3149 3150 3151 3150 3150 3150 3151 3152 3153 3153 3152 3152 3153 3153 3153 3152 3153 3154 3155 3155 3155 3155 3155 3155 3156 3156 3156 3156 3156 3155 3155 3155 3155 3155 3155 3155 3156 3156 3157 3157 3157 3158 3158 3157 3158 3158 3158 3159 3159 3159 3159 3160 3160 3160 3160 3160 3160 3160 3160 3161 3160 3160 3160 3159 3159 3159 3160 3161 3161 3159 3157 3160 3164 3165 3167 3169 3171 3173 3176 3177 3178 3179
3151 3151 3149 3148 3148 3149 3150 3150 3150 3149 3150 3151 3152 3152 3152 3151 3151 3152 3153 3153 3152 3152 3153 3154 3155 3155 3155 3156 3156 3156 3156 3156 3155 3155 3155 3155 3155 3155 3155 3155 3155 3155 3156 3156 3157 3157 3157 3158 3157 3157 3157 3158 3158 3158 3158 3159 3159 3159 3159 3159 3159 3159 3159 3159 3159 3159 3158 3158 3157 3157 3158 3159 3159 3159 3155 3152 3155 3160 3163 3163 3164 3166 3168 3171 3173 3174 3175
3149 3149 3148 3148 3148 3148 3149 3149 3149 3149 3149 3151 3151 3150 3150 3151 3151 3151 3152 3152 3152 3152 3153 3154 3154 3154 3155 3156 3156 3156 3155 3155 3155 3154 3154 3155 3155 3155 3155 3155 3155 3155 3156 3156 3156 3157 3157 3157 3157 3157 3157 3157 3157 3158 3158 3158 3158 3158 3158 3158 3158 3158 3158 3158 3158 3158 3157 3157 3156 3155 3156 3156 3156 3157 3155 3153 3155 3158 3160 3160 3161 3162 3164 3166 3169 3171 3172
3147 3148 3148 3147 3147 3147 3148 3149 3149 3149 3149 3150 3150 3149 3149 3150 3150 3151 3151 3152 3151 3152 3152 3153 3153 3154 3154 3154 3154 3154 3154 3154 3154 3154 3154 3154 3155 3155 3155 3155 3155 3155 3156 3156 3156 3156 3156 3157 3157 3157 3157 3156 3157 3157 3157 3157 3157 3158 3157 3157 3157 3157 3157 3157 3157 3157 3157 3156 3155 3155 3154 3154 3154 3155 3155 3155 3155 3156 3157 3158 3158 3159 3160 3162 3165 3167 3168
3146 3147 3147 3146 3146 3146 3147 3148 3148 3148 3149 3148 3148 3148 3149 3149 3150 3150 3150 3150 3151 3151 3151 3152 3152 3153 3153 3153 3153 3153 3153 3153 3153 3153 3154 3154 3154 3155 3155 3155 3155 3155 3156 3156 3156 3156 3156 3156 3156 3156 3156 3156 3156 3156 3156 3156 3157 3157 3157 3156 3156 3156 3156 3156 3156 3156 3156 3156 3155 3155 3154 3154 3154 3154 3154 3154 3153 3153 3154 3155 3155 3156 3158 3159 3161 3163 3165
3145 3145 3145 3145 3145 3146 3146 3147 3147 3147 3147 3147 3147 3148 3148 3148 3149 3149 3149 3150 3150 3150 3150 3151 3151 3151 3152 3151 3151 3151 3151 3152 3152 3153 3154 3154 3154 3154 3154 3155 3155 3155 3156 3156 3156 3156 3156 3156 3156 3156 3156 3156 3156 3156 3156 3156 3156 3156 3156 3156 3156 3156 3156 3155 3155 3155 3155 3155 3155 3155 3155 3154 3154 3154 3153 3153 3152 3152 3152 3152 3153 3154 3155 3157 3159 3161 3162
3143 3143 3143 3143 3144 3145 3145 3145 3145 3145 3146 3146 3146 3147 3147 3147 3147 3148 3148 3149 3149 3149 3150 3150 3150 3150 3150 3150 3150 3150 3151 3151 3152 3153 3153 3154 3154 3154 3154 3154 3154 3155 3155 3155 3155 3155 3155 3155 3155 3155 3155 3155 3155 3155 3155 3155 3155 3155 3155 3155 3155 3155 3155 3155 3155 3154 3155 3155 3155 3155 3155 3155 3155 3154 3154 3153 3152 3152 3152 3152 3152 3153 3154 3156 3157 3158 3159
3141 3141 3142 3142 3143 3143 3143 3144 3144 3144 3145 3145 3145 3145 3146 3146 3146 3146 3147 3148 3148 3149 3149 3149 3149 3149 3149 3149 3149 3149 3150 3151 3151 3152 3153 3153 3154 3154 3154 3154 3154 3154 3155 3155 3155 3155 3155 3155 3154 3154 3155 3155 3155 3155 3155 3155 3155 3155 3155 3155 3155 3155 3155 3154 3154 3154 3154 3154 3154 3154 3154 3154 3154 3154 3154 3153 3152 3152 3151 3151 3152 3152 3153 3154 3155 3157 3158
3140 3140 3140 3140 3141 3141 3142 3142 3143 3143 3143 3144 3144 3144 3144 3145 3145 3145 3146 3147 3147 3148 3148 3148 3148 3148 3148 3149 3149 3149 3150 3151 3151 3152 3153 3153 3154 3154 3154 3154 3154 3154 3154 3154 3154 3154 3154 3154 3154 3154 3154 3155 3155 3155 3155 3155 3155 3154 3154 3154 3154 3154 3154 3154 3153 3153 3153 3153 3152 3152 3152 3152 3153 3153 3153 3152 3152 3152 3151 3151 3151 3151 3152 3153 3153 3155 3155
3139 3139 3138 3139 3139 3140 3140 3141 3141 3141 3142 3142 3143 3143 3143 3144 3144 3145 3145 3146 3146 3147 3147 3147 3148 3148 3148 3148 3149 3149 3150 3151 3151 3152 3153 3153 3154 3154 3154 3154 3154 3154 3154 3154 3154 3154 3154 3154 3154 3154 3154 3154 3155 3155 3154 3154 3154 3154 3154 3154 3154 3154 3154 3154 3153 3153 3153 3152 3152 3152 3151 3151 3151 3151 3151 3151 3151 3151 3151 3150 3150 3150 3150 3151 3151 3152 3152
3137 3137 3137 3138 3138 3138 3139 3139 3140 3140 3141 3141 3142 3142 3142 3143 3143 3144 3144 3145 3145 3146 3147 3147 3147 3147 3148 3148 3149 3149 3150 3151 3152 3152 3153 3153 3153 3154 3154 3154 3154 3154 3154 3153 3153 3153 3153 3154 3154 3154 3154 3154 3154 3154 3154 3154 3154 3154 3154 3154 3154 3154 3154 3153 3153 3153 3153 3152 3152 3151 3151 3150 3150 3150 3149 3149 3149 3149 3149 3149 3149 3149 3149 3149 3148 3149 3149
3136 3136 3135 3136 3137 3137 3137 3138 3138 3139 3139 3140 3140 3141 3141 3142 3142 3143 3143 3144 3145 3145 3146 3147 3147 3147 3148 3148 3149 3149 3150 3151 3151 3152 3153 3153 3153 3153 3154 3154 3154 3153 3153 3153 3153 3153 3153 3153 3153 3153 3154 3154 3154 3154 3154 3154 3154 3154 3154 3154 3154 3153 3153 3153 3153 3153 3152 3152 3151 3151 3151 3150 3150 3149 3149 3148 3148 3148 3147 3147 3147 3147 3147 3147 3146 3146 3147
3135 3134 3134 3135 3136 3136 3136 3136 3137 3137 3138 3139 3139 3140 3140 3141 3141 3142 3143 3143 3144 3145 3145 3146 3147 3147 3147 3148 3148 3149 3150 3150 3151 3151 3152 3152 3152 3153 3153 3153 3153 3153 3153 3152 3152 3152 3152 3152 3152 3153 3153 3153 3153 3153 3153 3153 3153 3153 3152 3153 3153 3152 3152 3152 3152 3152 3151 3151 3151 3150 3150 3149 3149 3148 3148 3148 3147 3147 3147 3146 3146 3146 3146 3145 3145 3145 3145
3133 3133 3133 3133 3134 3135 3134 3135 3135 3136 3137 3138 3138 3139 3139 3140 3140 3141 3142 3142 3143 3144 3145 3145 3146 3146 3147 3147 3148 3148 3149 3150 3150 3151 3151 3151 3152 3152 3152 3152 3152 3152 3152 3151 3151 3151 3151 3151 3151 3151 3152 3152 3152 3152 3152 3152 3152 3152 3151 3151 3151 3151 3151 3151 3151 3150 3150 3150 3149 3149 3149 3148 3148 3148 3147 3147 3146 3146 3146 3145 3145 3145 3144 3144 3144 3144 3144
3130 3131 3131 3132 3133 3133 3133 3134 3134 3135 3136 3137 3137 3138 3138 3139 3139 3140 3141 3141 3142 3143 3144 3145 3145 3146 3146 3147 3147 3148 3148 3149 3149 3150 3150 3150 3151 3151 3151 3151 3151 3151 3150 3150 3149 3149 3150 3150 3150 3150 3150 3150 3150 3150 3150 3150 3150 3150 3150 3150 3150 3149 3149 3149 3149 3149 3148 3148 3148 3147 3147 3147 3147 3146 3146 3146 3145 3145 3144 3144 3144 3143 3143 3143 3143 3142 3142
3129 3130 3130 3131 3131 3132 3132 3133 3133 3134 3135 3135 3136 3136 3137 3138 3138 3139 3140 3141 3141 3142 3143 3143 3144 3145 3145 3146 3146 3147 3147 3148 3148 3149 3149 3150 3150 3150 3150 3150 3150 3150 3149 3149 3148 3148 3149 3149 3150 3149 3149 3149 3149 3148 3148 3148 3148 3148 3148 3148 3148 3148 3148 3147 3147 3147 3147 3146 3146 3146 3145 3145 3145 3145 3144 3144 3144 3143 3143 3142 3142 3141 3141 3141 3141 3141 3140
3128 3128 3129 3129 3130 3131 3131 3132 3132 3133 3134 3134 3135 3135 3136 3136 3137 3138 3139 3140 3140 3141 3142 3142 3143 3144 3144 3145 3145 3146 3146 3147 3147 3148 3149 3149 3149 3149 3149 3149 3149 3149 3148 3147 3147 3147 3148 3148 3148 3148 3148 3147 3147 3147 3146 3146 3146 3146 3146 3146 3146 3146 3146 3145 3145 3145 3145 3144 3144 3144 3144 3143 3143 3143 3142 3142 3142 3141 3141 3140 3140 3140 3139 3139 3139 3139 3138
3126 3127 3128 3128 3129 3130 3130 3131 3131 3132 3133 3133 3134 3134 3135 3135 3136 3136 3137 3138 3139 3140 3140 3141 3142 3143 3143 3144 3144 3145 3145 3145 3146 3146 3147 3147 3148 3148 3148 3147 3147 3147 3147 3146 3146 3146 3147 3147 3147 3146 3146 3146 3145 3145 3145 3144 3144 3144 3144 3144 3143 3143 3143 3143 3143 3142 3142 3142 3142 3142 3141 3141 3141 3141 3140 3140 3140 3139 3139 3138 3138 3137 3137 3137 3137 3137 3136
3125 3125 3126 3127 3128 3128 3129 3129 3130 3131 3131 3132 3133 3133 3134 3134 3135 3135 3136 3136 3137 3138 3139 3140 3141 3141 3142 3142 3143 3143 3144 3144 3144 3145 3145 3145 3145 3146 3145 3145 3145 3145 3145 3145 3145 3145 3145 3145 3145 3145 3144 3144 3144 3143 3143 3142 3142 3142 3141 3141 3141 3141 3141 3141 3140 3140 3140 3139 3139 3139 3139 3139 3138 3138 3138 3138 3137 3137 3137 3136 3135 3135 3135 3134 3134 3134 3134
3123 3124 3125 3126 3126 3127 3128 3128 3129 3129 3130 3131 3131 3132 3132 3133 3133 3134 3134 3135 3135 3136 3137 3138 3139 3140 3140 3141 3142 3142 3142 3143 3143 3143 3143 3143 3143 3143 3143 3143 3144 3144 3144 3144 3144 3144 3143 3143 3143 3143 3142 3142 3142 3141 3141 3141 3140 3140 3139 3139 3138 3138 3138 3138 3137 3137 3137 3136 3136 3136 3136 3135 3135 3135 3135 3135 3135 3135 3134 3134 3133 3133 3132 3132 3132 3131 3131
3121 3122 3123 3124 3125 3125 3126 3127 3127 3128 3128 3129 3130 3130 3131 3131 3132 3132 3133 3133 3134 3134 3135 3136 3137 3138 3138 3139 3140 3140 3141 3141 3141 3141 3141 3141 3141 3141 3141 3141 3142 3142 3142 3142 3142 3141 3141 3141 3141 3140 3140 3140 3140 3139 3139 3138 3138 3137 3137 3136 3136 3135 3135 3135 3135 3134 3134 3133 3133 3133 3132 3132 3132 3132 3132 3132 3133 3132 3132 3132 3131 3130 3130 3130 3129 3129 3129
3119 3120 3121 3122 3123 3124 3124 3125 3125 3126 3127 3127 3128 3129 3129 3130 3130 3131 3131 3132 3132 3133 3134 3134 3135 3136 3136 3137 3137 3138 3138 3138 3138 3139 3139 3139 3139 3139 3139 3139 3139 3139 3139 3139 3139 3138 3138 3138 3137 3137 3137 3137 3137 3136 3136 3135 3135 3134 3134 3134 3134 3133 3132 3132 3132 3131 3131 3130 3130 3129 3129 3129 3129 3129 3129 3129 3130 3130 3130 3130 3129 3128 3127 3127 3126 3126 3126
3116 3117 3118 3119 3120 3121 3122 3123 3124 3124 3125 3126 3127 3127 3128 3128 3129 3129 3130 3130 3131 3131 3132 3133 3133 3134 3134 3135 3135 3135 3136 3136 3136 3136 3136 3137 3137 3137 3137 3137 3137 3137 3137 3136 3136 3135 3135 3135 3134 3134 3134 3133 3133 3133 3132 3132 3132 3131 3131 3131 3131 3130 3129 3129 3128 3128 3127 3127 3126 3126 3126 3126 3126 3126 3126 3126 3126 3127 3127 3127 3126 3126 3125 3124 3124 3123 3124
3114 3115 3116 3117 3118 3119 3120 3121 3122 3122 3123 3124 3125 3126 3126 3127 3127 3128 3128 3129 3129 3130 3130 3131 3132 3132 3132 3133 3133 3133 3134 3134 3134 3134 3134 3134 3134 3134 3135 3135 3134 3134 3134 3134 3133 3133 3133 3132 3132 3131 3131 3130 3130 3129 3129 3129 3128 3128 3128 3127 3127 3126 3126 3125 3125 3125 3124 3124 3123 3122 3122 3122 3122 3122 3122 3123 3123 3123 3123 3123 3123 3123 3122 3122 3121 3121 3121
3111 3113 3114 3115 3116 3117 3118 3119 3119 3120 3121 3122 3123 3124 3124 3125 3125 3126 3127 3127 3128 3128 3129 3130 3130 3131 3131 3131 3132 3132 3132 3132 3132 3132 3132 3132 3132 3132 3132 3132 3132 3132 3131 3131 3131 3130 3130 3130 3129 3128 3128 3127 3126 3126 3125 3125 3125 3124 3124 3124 3123 3123 3122 3122 3121 3121 3121 3120 3120 3119 3119 3119 3118 3118 3119 3120 3120 3120 3120 3120 3120 3120 3119 3119 3118 3118 3117
3108 3109 3110 3112 3113 3114 3115 3116 3117 3118 3119 3120 3121 3122 3123 3123 3124 3125 3125 3126 3126 3127 3128 3128 3129 3129 3129 3130 3130 3130 3130 3131 3131 3131 3131 3130 3130 3130 3130 3130 3129 3129 3128 3128 3128 3127 3126 3126 3126 3125 3124 3123 3123 3122 3122 3122 3121 3120 3120 3120 3119 3119 3118 3118 3117 3117 3117 3117 3117 3116 3116 3115 3115 3116 3116 3117 3117 3117 3117 3117 3116 3116 3116 3115 3114 3114 3114
3106 3107 3108 3109 3110 3112 3112 3114 3115 3116 3117 3118 3119 3120 3120 3121 3122 3123 3124 3124 3125 3126 3126 3127 3127 3127 3128 3128 3128 3129 3129 3129 3128 3128 3128 3128 3128 3128 3128 3127 3126 3126 3125 3124 3124 3124 3123 3122 3122 3121 3121 3120 3120 3119 3119 3118 3118 3117 3116 3116 3115 3115 3115 3114 3114 3114 3113 3113 3113 3113 3113 3113 3113 3113 3113 3113 3114 3114 3113 3113 3113 3113 3113 3112 3111 3110 3110
3103 3104 3105 3107 3108 3109 3110 3112 3113 3114 3115 3116 3116 3117 3118 3119 3120 3121 3122 3122 3123 3124 3124 3125 3125 3126 3126 3127 3127 3127 3127 3126 3126 3126 3126 3126 3126 3125 3125 3124 3124 3123 3122 3121 3121 3120 3120 3119 3118 3118 3117 3117 3116 3116 3115 3115 3114 3114 3113 3113 3112 3111 3111 3111 3110 3110 3110 3110 3109 3109 3109 3110 3110 3110 3110 3110 3110 3110 3109 3109 3109 3109 3109 3108 3107 3107 3107
3100 3101 3103 3104 3106 3107 3108 3110 3111 3112 3113 3113 3114 3115 3116 3117 3118 3119 3120 3120 3121 3122 3123 3123 3124 3124 3124 3125 3125 3125 3125 3124 3124 3124 3124 3123 3123 3122 3122 3121 3121 3120 3119 3119 3118 3117 3116 3115 3115 3114 3114 3113 3113 3112 3112 3111 3111 3111 3110 3110 3109 3109 3108 3107 3107 3106 3106 3106 3106 3106 3106 3106 3107 3107 3107 3106 3106 3106 3106 3105 3105 3105 3105 3104 3104 3103 3104
3098 3099 3100 3102 3104 3105 3106 3108 3109 3110 3111 3111 3112 3113 3114 3115 3116 3117 3118 3119 3120 3121 3121 3122 3122 3122 3122 3122 3122 3122 3122 3122 3121 3121 3121 3120 3120 3119 3118 3118 3118 3117 3116 3116 3115 3114 3113 3112 3112 3111 3110 3110 3109 3109 3108 3107 3107 3107 3106 3106 3106 3105 3105 3104 3104 3103 3102 3102 3102 3102 3102 3102 3102 3103 3103 3102 3102 3102 3102 3101 3101 3101 3101 3101 3100 3100 3099
3096 3097 3098 3100 3102 3103 3104 3106 3107 3108 3109 3110 3111 3112 3113 3114 3115 3116 3116 3117 3118 3119 3119 3120 3120 3120 3120 3120 3120 3120 3119 3119 3118 3118 3118 3117 3116 3116 3115 3114 3114 3114 3113 3112 3112 3111 3110 3109 3108 3108 3107 3107 3106 3106 3105 3104 3104 3103 3103 3102 3102 3102 3101 3101 3100 3100 3099 3099 3099 3099 3099 3098 3098 3098 3098 3098 3098 3097 3097 3097 3097 3097 3097 3097 3097 3096 3095
3094 3095 3096 3098 3100 3101 3103 3104 3105 3106 3107 3108 3109 3110 3111 3112 3113 3114 3115 3115 3116 3117 3117 3117 3117 3118 3118 3117 3117 3117 3116 3116 3115 3115 3114 3114 3113 3113 3112 3111 3111 3110 3110 3109 3108 3107 3107 3106 3105 3105 3104 3104 3103 3103 3102 3101 3101 3100 3100 3099 3099 3098 3098 3097 3097 3096 3096 3096 3096 3095 3095 3094 3094 3094 3094 3094 3093 3093 3092 3092 3092 3092 3093 3093 3093 3092 3092
3092 3093 3094 3096 3097 3099 3101 3102 3103 3104 3105 3106 3107 3108 3109 3110 3111 3112 3113 3113 3114 3114 3115 3115 3115 3115 3115 3114 3114 3114 3113 3113 3112 3112 3111 3111 3110 3109 3108 3107 3107 3107 3106 3105 3105 3104 3104 3103 3102 3102 3102 3101 3101 3100 3099 3099 3098 3097 3097 3096 3095 3095 3094 3094 3094 3093 3093 3093 3092 3092 3091 3091 3091 3091 3090 3090 3090 3089 3088 3087 3087 3087 3087 3088 3088 3088 3088
3090 3091 3092 3094 3095 3097 3099 3100 3101 3102 3103 3104 3105 3106 3107 3108 3109 3110 3110 3111 3111 3112 3112 3112 3112 3112 3112 3111 3111 3110 3110 3109 3109 3108 3108 3107 3107 3106 3105 3105 3104 3104 3103 3103 3102 3102 3101 3100 3100 3100 3099 3099 3098 3098 3097 3096 3095 3095 3094 3093 3092 3091 3091 3091 3090 3090 3089 3089 3089 3088 3088 3087 3087 3087 3086 3086 3086 3085 3084 3084 3083 3083 3082 3083 3083 3083 3083
3088 3089 3091 3092 3093 3095 3097 3098 3099 3100 3101 3102 3103 3104 3105 3106 3107 3107 3108 3109 3109 3109 3110 3110 3110 3109 3109 3108 3107 3107 3107 3106 3106 3105 3105 3104 3103 3103 3103 3102 3101 3101 3100 3100 3100 3099 3099 3098 3098 3098 3097 3097 3096 3095 3094 3094 3093 3092 3091 3090 3089 3088 3088 3087 3086 3086 3086 3085 3085 3085 3084 3084 3083 3083 3082 3082 3082 3081 3081 3080 3079 3079 3079 3078 3078 3078 3077
3085 3087 3089 3090 3091 3093 3095 3096 3097 3098 3099 3100 3101 3102 3103 3104 3104 3105 3106 3106 3107 3107 3107 3107 3107 3106 3106 3105 3105 3104 3104 3103 3103 3102 3102 3101 3100 3100 3099 3099 3098 3098 3098 3097 3097 3097 3096 3096 3096 3095 3095 3094 3093 3093 3092 3091 3091 3090 3089 3088 3087 3085 3084 3084 3083 3082 3082 3081 3081 3081 3080 3080 3079 3079 3079 3078 3078 3077 3077 3076 3076 3075 3075 3074 3074 3073 3073
3083 3084 3086 3088 3089 3091 3093 3094 3095 3096 3097 3098 3099 3100 3101 3101 3102 3103 3103 3104 3104 3104 3104 3104 3104 3103 3103 3102 3102 3102 3101 3100 3100 3099 3098 3098 3097 3097 3096 3096 3096 3095 3095 3095 3095 3094 3094 3094 3094 3093 3092 3092 3091 3090 3089 3089 3088 3087 3086 3085 3084 3083 3082 3081 3080 3079 3078 3077 3077 3076 3076 3075 3075 3075 3075 3075 3074 3073 3073 3072 3072 3071 3071 3070 3070 3070 3069
3080 3082 3084 3085 3087 3089 3090 3092 3093 3094 3095 3096 3097 3098 3098 3099 3100 3100 3101 3101 3101 3101 3101 3101 3101 3100 3100 3099 3099 3099 3098 3097 3096 3096 3095 3095 3094 3094 3094 3093 3093 3093 3093 3093 3092 3092 3092 3092 3091 3090 3090 3089 3088 3087 3087 3086 3085 3085 3084 3083 3082 3081 3080 3079 3078 3076 3075 3074 3073 3073 3072 3071 3071 3071 3071 3070 3070 3069 3069 3069 3068 3068 3067 3067 3067 3067 3066
3078 3080 3082 3083 3085 3087 3088 3090 3091 3092 3093 3094 3095 3095 3096 3097 3097 3098 3098 3098 3098 3098 3098 3098 3097 3097 3096 3096 3096 3095 3094 3094 3093 3093 3092 3092 3092 3091 3091 3091 3091 3091 3090 3090 3090 3090 3089 3089 3088 3088 3087 3086 3085 3085 3084 3083 3083 3082 3082 3081 3080 3079 3078 3077 3076 3075 3073 3072 3071 3070 3069 3068 3068 3067 3067 3066 3066 3065 3065 3064 3064 3064 3063 3063 3063 3063 3063
3077 3078 3080 3082 3083 3085 3086 3087 3089 3090 3091 3091 3092 3093 3093 3094 3095 3095 3095 3095 3095 3095 3095 3094 3093 3093 3092 3092 3091 3091 3091 3090 3090 3090 3089 3089 3089 3089 3089 3089 3088 3088 3088 3088 3088 3088 3087 3086 3086 3085 3085 3084 3083 3083 3082 3082 3081 3081 3080 3079 3078 3077 3076 3075 3074 3073 3072 3071 3069 3069 3067 3066 3065 3065 3064 3063 3062 3062 3061 3061 3060 3060 3060 3059 3059 3059 3059
3075 3077 3078 3080 3081 3083 3084 3085 3086 3087 3088 3089 3089 3090 3091 3091 3092 3092 3092 3092 3092 3091 3091 3090 3089 3089 3088 3088 3087 3087 3087 3087 3087 3087 3087 3087 3087 3087 3086 3086 3086 3086 3086 3086 3086 3085 3085 3084 3084 3083 3083 3082 3082 3081 3081 3080 3080 3079 3078 3077 3076 3075 3074 3073 3072 3071 3070 3069 3068 3067 3066 3065 3064 3063 3062 3061 3060 3059 3058 3058 3057 3056 3056 3056 3055 3055 3055
3073 3074 3076 3077 3079 3080 3081 3082 3083 3084 3085 3086 3086 3087 3088 3088 3088 3089 3089 3089 3088 3088 3087 3086 3086 3085 3085 3084 3084 3084 3084 3084 3084 3084 3084 3085 3084 3084 3084 3084 3084 3084 3084 3084 3083 3083 3082 3082 3082 3081 3081 3080 3080 3079 3079 3078 3078 3077 3076 3075 3074 3073 3072 3072 3071 3070 3069 3068 3067 3066 3065 3064 3063 3062 3061 3060 3058 3057 3056 3055 3055 3054 3053 3052 3052 3052 3051